Torna al catalogo

BREEZE-M R/B

AttivoHEO
NORAD 34942·ROCKET BODY·🇷🇺 Russia

Lanciato May 16, 2009 da Baikonur Cosmodrome

Loading…

Prossimi Passaggi (prossime 24 ore)

TLE

AggiornatoSource: Space-Track

Epoca: Sep 14, 2026, 06:59 UTC

1 34942U 09027B   26257.29163105 -.00000131  00000-0  00000-0 0  9995
2 34942   8.1507 288.7796 3394981 285.6150 288.0915  1.57274320 99558

Traccia BREEZE-M R/B in tempo reale con AllMySat

Download on the App Store